| time (UTC) | temp F | wind direction | speed MPH | gust MPH | rain 1hr in | rain 24hr in | rain mn in | humidity % | barometer mb |
| 20260901013021 | 79 | 0.0 | 0.0 | 0.00 | 0.00 | 0.00 | 51 | 1017.4 | |
| 20260901011515 | 80 | 0.0 | 0.0 | 0.00 | 0.00 | 0.00 | 48 | 1017.5 | |
| 20260901010011 | 81 | 0.0 | 0.0 | 0.00 | 0.00 | 0.00 | 44 | 1017.6 | |
| 20260901004506 | 82 | 0.0 | 0.0 | 0.00 | 0.00 | 0.00 | 42 | 1017.6 | |
| 20260901003002 | 82 | 0.0 | 0.0 | 0.00 | 0.00 | 0.00 | 42 | 1017.5 | |
| 20260901001558 | 82 | 0.0 | 0.0 | 0.00 | 0.00 | 0.00 | 42 | 1017.6 | |
| 20260831233049 | 83 | 0.0 | 0.0 | 0.00 | 0.00 | 0.00 | 41 | 1017.6 | |
| 20260831231547 | 84 | 0.0 | 0.0 | 0.00 | 0.00 | 0.00 | 41 | 1017.6 | |
| 20260831230041 | 84 | 0.0 | 0.0 | 0.00 | 0.00 | 0.00 | 41 | 1017.8 | |
| 20260831224535 | 84 | 0.0 | 0.0 | 0.00 | 0.00 | 0.00 | 41 | 1017.8 | |
| 20260831223035 | 85 | 0.0 | 0.0 | 0.00 | 0.00 | 0.00 | 40 | 1017.8 | |
| 20260831221531 | 85 | 0.0 | 0.0 | 0.00 | 0.00 | 0.00 | 39 | 1017.9 | |
| 20260831220022 | 86 | 0.0 | 0.0 | 0.00 | 0.00 | 0.00 | 38 | 1018.0 | |
| 20260831214517 | 86 | 0.0 | 0.0 | 0.00 | 0.00 | 0.00 | 38 | 1017.9 | |
| 20260831213014 | 86 | 0.0 | 0.0 | 0.00 | 0.00 | 0.00 | 40 | 1018.0 | |
| 20260831211514 | 86 | 0.0 | 0.0 | 0.00 | 0.00 | 0.00 | 39 | 1018.2 | |
| 20260831210006 | 86 | 0.0 | 0.0 | 0.00 | 0.00 | 0.00 | 36 | 1018.4 | |
| 20260831204600 | 86 | 0.0 | 0.0 | 0.00 | 0.00 | 0.00 | 38 | 1018.3 | |
| 20260831203056 | 87 | 0.0 | 0.0 | 0.00 | 0.00 | 0.00 | 39 | 1018.4 | |
| 20260831201551 | 87 | 0.0 | 0.0 | 0.00 | 0.00 | 0.00 | 37 | 1018.5 | |
| 20260831200047 | 87 | 0.0 | 0.0 | 0.00 | 0.00 | 0.00 | 38 | 1018.5 | |
| 20260831194603 | 86 | 0.0 | 0.0 | 0.00 | 0.00 | 0.00 | 38 | 1018.6 | |
| 20260831193038 | 86 | 0.0 | 0.0 | 0.00 | 0.00 | 0.00 | 38 | 1018.9 | |
| 20260831191535 | 86 | 0.0 | 0.0 | 0.00 | 0.00 | 0.00 | 38 | 1018.7 | |
| 20260831190030 | 85 | 0.0 | 0.0 | 0.00 | 0.00 | 0.00 | 38 | 1018.8 | |
| 20260831184526 | 85 | 0.0 | 0.0 | 0.00 | 0.00 | 0.00 | 36 | 1018.8 | |
| 20260831183021 | 84 | 0.0 | 0.0 | 0.00 | 0.00 | 0.00 | 41 | 1018.8 | |
| 20260831181517 | 84 | 0.0 | 0.0 | 0.00 | 0.00 | 0.00 | 37 | 1018.8 | |
| 20260831180013 | 83 | 0.0 | 0.0 | 0.00 | 0.00 | 0.00 | 42 | 1018.8 | |
| 20260831174508 | 81 | 0.0 | 0.0 | 0.00 | 0.00 | 0.00 | 40 | 1018.8 | |
| 20260831173004 | 81 | 0.0 | 0.0 | 0.00 | 0.00 | 0.00 | 41 | 1018.8 | |
| 20260831171600 | 80 | 0.0 | 0.0 | 0.00 | 0.00 | 0.00 | 44 | 1018.7 | |
| 20260831170055 | 79 | 0.0 | 0.0 | 0.00 | 0.00 | 0.00 | 41 | 1018.7 | |
| 20260831164551 | 78 | 0.0 | 0.0 | 0.00 | 0.00 | 0.00 | 42 | 1018.6 | |
| 20260831163047 | 77 | 0.0 | 0.0 | 0.00 | 0.00 | 0.00 | 46 | 1018.6 | |
| 20260831161542 | 76 | 0.0 | 0.0 | 0.00 | 0.00 | 0.00 | 50 | 1018.5 | |
| 20260831160041 | 75 | 0.0 | 0.0 | 0.00 | 0.00 | 0.00 | 52 | 1018.5 | |
| 20260831154534 | 74 | 0.0 | 0.0 | 0.00 | 0.00 | 0.00 | 48 | 1018.6 | |
| 20260831153029 | 73 | 0.0 | 0.0 | 0.00 | 0.00 | 0.00 | 58 | 1018.4 | |
| 20260831151525 | 71 | 0.0 | 0.0 | 0.00 | 0.00 | 0.00 | 62 | 1018.3 | |
| 20260831150020 | 69 | 0.0 | 0.0 | 0.00 | 0.00 | 0.00 | 61 | 1018.2 | |
| 20260831144516 | 67 | 0.0 | 0.0 | 0.00 | 0.00 | 0.00 | 61 | 1018.1 | |
| 20260831143012 | 63 | 0.0 | 0.0 | 0.00 | 0.00 | 0.00 | 68 | 1018.0 | |
| 20260831141507 | 61 | 0.0 | 0.0 | 0.00 | 0.00 | 0.00 | 71 | 1017.8 | |
| 20260831140003 | 60 | 0.0 | 0.0 | 0.00 | 0.00 | 0.00 | 73 | 1017.5 | |
| 20260831134559 | 60 | 0.0 | 0.0 | 0.00 | 0.00 | 0.00 | 70 | 1017.4 | |
| 20260831133054 | 60 | 0.0 | 0.0 | 0.00 | 0.00 | 0.00 | 73 | 1017.3 | |
| 20260831131555 | 61 | 0.0 | 0.0 | 0.00 | 0.00 | 0.00 | 74 | 1017.1 | |
| 20260831130045 | 61 | 0.0 | 0.0 | 0.00 | 0.00 | 0.00 | 76 | 1017.1 | |
| 20260831124542 | 61 | 0.0 | 0.0 | 0.00 | 0.00 | 0.00 | 76 | 1017.1 | |
| 20260831123040 | 62 | 0.0 | 0.0 | 0.00 | 0.00 | 0.00 | 74 | 1017.0 | |
| 20260831121533 | 62 | 0.0 | 0.0 | 0.00 | 0.00 | 0.00 | 75 | 1016.9 | |
| 20260831120028 | 64 | 0.0 | 0.0 | 0.00 | 0.00 | 0.00 | 84 | 1016.8 | |
| 20260831114524 | 65 | 0.0 | 0.0 | 0.00 | 0.00 | 0.00 | 87 | 1017.0 | |
| 20260831113022 | 66 | 0.0 | 0.0 | 0.00 | 0.00 | 0.00 | 88 | 1017.0 | |
| 20260831111517 | 65 | 0.0 | 0.0 | 0.00 | 0.00 | 0.00 | 89 | 1017.1 | |
| 20260831110011 | 65 | 0.0 | 0.0 | 0.00 | 0.00 | 0.00 | 88 | 1017.0 | |
| 20260831104511 | 65 | 0.0 | 0.0 | 0.00 | 0.00 | 0.00 | 87 | 1017.1 | |
| 20260831103002 | 64 | 0.0 | 0.0 | 0.00 | 0.00 | 0.00 | 87 | 1017.2 | |
| 20260831101558 | 63 | 0.0 | 0.0 | 0.00 | 0.00 | 0.00 | 83 | 1017.0 | |
| 20260831100053 | 63 | 0.0 | 0.0 | 0.00 | 0.00 | 0.00 | 79 | 1017.0 | |
| 20260831094549 | 64 | 0.0 | 0.0 | 0.00 | 0.00 | 0.00 | 74 | 1017.0 | |
| 20260831093045 | 64 | 0.0 | 0.0 | 0.00 | 0.00 | 0.00 | 74 | 1016.9 | |
| 20260831091542 | 64 | 0.0 | 0.0 | 0.00 | 0.00 | 0.00 | 73 | 1017.0 | |
| 20260831090037 | 64 | 0.0 | 0.0 | 0.00 | 0.00 | 0.00 | 73 | 1017.0 | |
| 20260831084532 | 65 | 0.0 | 0.0 | 0.00 | 0.00 | 0.00 | 76 | 1017.0 | |
| 20260831083037 | 65 | 0.0 | 0.0 | 0.00 | 0.00 | 0.00 | 77 | 1017.1 | |
| 20260831081523 | 66 | 0.0 | 0.0 | 0.00 | 0.00 | 0.00 | 76 | 1017.2 | |
| 20260831080018 | 66 | 0.0 | 0.0 | 0.00 | 0.00 | 0.00 | 77 | 1017.1 | |
| 20260831074514 | 66 | 0.0 | 0.0 | 0.00 | 0.00 | 0.00 | 74 | 1017.1 | |
| 20260831073014 | 67 | 0.0 | 0.0 | 0.00 | 0.00 | 0.00 | 82 | 1017.1 | |
| 20260831071505 | 67 | 0.0 | 0.0 | 0.00 | 0.00 | 0.00 | 83 | 1017.2 | |
| 20260831070002 | 67 | 0.0 | 0.0 | 0.00 | 0.00 | 0.00 | 83 | 1017.2 | |
| 20260831064557 | 68 | 0.0 | 0.0 | 0.00 | 0.00 | 0.00 | 83 | 1017.3 | |
| 20260831063053 | 68 | 0.0 | 0.0 | 0.00 | 0.00 | 0.00 | 82 | 1017.3 | |
| 20260831061550 | 68 | 0.0 | 0.0 | 0.00 | 0.00 | 0.00 | 82 | 1017.2 | |
| 20260831060044 | 69 | 0.0 | 0.0 | 0.00 | 0.00 | 0.00 | 80 | 1017.1 | |
| 20260831054539 | 69 | 0.0 | 0.0 | 0.00 | 0.00 | 0.00 | 80 | 1017.1 | |
| 20260831053038 | 70 | 0.0 | 0.0 | 0.00 | 0.00 | 0.00 | 79 | 1017.0 | |
| 20260831051530 | 70 | 0.0 | 0.0 | 0.00 | 0.00 | 0.00 | 78 | 1016.9 | |
| 20260831050026 | 71 | 0.0 | 0.0 | 0.00 | 0.00 | 0.00 | 77 | 1016.8 | |
| 20260831044525 | 71 | 0.0 | 0.0 | 0.00 | 0.00 | 0.00 | 76 | 1016.8 | |
| 20260831043017 | 72 | 0.0 | 0.0 | 0.00 | 0.00 | 0.00 | 75 | 1016.7 | |
| 20260831041529 | 73 | 0.0 | 0.0 | 0.00 | 0.00 | 0.00 | 73 | 1016.7 | |
| 20260831040010 | 73 | 0.0 | 0.0 | 0.00 | 0.00 | 0.00 | 71 | 1016.5 | |
| 20260831034504 | 74 | 0.0 | 0.0 | 0.00 | 0.00 | 0.00 | 70 | 1016.3 | |
| 20260831033100 | 74 | 0.0 | 0.0 | 0.00 | 0.00 | 0.00 | 68 | 1016.1 | |
| 20260831031555 | 75 | 0.0 | 0.0 | 0.00 | 0.00 | 0.00 | 66 | 1016.0 | |
| 20260831030059 | 76 | 0.0 | 0.0 | 0.00 | 0.00 | 0.00 | 65 | 1015.8 | |
| 20260831024615 | 76 | 0.0 | 0.0 | 0.00 | 0.00 | 0.00 | 60 | 1015.8 | |
| 20260831023052 | 77 | 0.0 | 0.0 | 0.00 | 0.00 | 0.00 | 56 | 1015.8 | |
| 20260831021554 | 79 | 0.0 | 0.0 | 0.00 | 0.00 | 0.00 | 54 | 1015.8 | |
| 20260831020051 | 80 | 0.0 | 0.0 | 0.00 | 0.00 | 0.00 | 52 | 1015.6 | |
| 20260831014550 | 81 | 0.0 | 0.0 | 0.00 | 0.00 | 0.00 | 47 | 1015.6 |